Location: Newark
(36.0797°N, 3.9744°E)
Time: 07:32:02
(UTC+00:00)

Vanguard 1 - All Passes

Search period start: 14 December 2019 00:00
Search period end: 24 December 2019 00:00
Orbit: 651 x 3832 km, 34.3° (Epoch: 13 December)

Date Brightness Start Highest point End Pass type
(mag) Time Alt. Az. Time Alt. Az. Time Alt. Az.
14 Dec - 01:56:19 10° SW 02:17:06 60° SSE 02:38:36 10° ENE visible
14 Dec - 04:20:18 10° WSW 04:44:12 83° S 05:02:39 10° E visible
14 Dec - 06:48:08 10° W 07:10:51 78° SSW 07:24:27 10° ESE daylight
14 Dec - 09:17:16 10° WNW 09:33:41 43° SW 09:43:14 10° SSE daylight
14 Dec - 23:57:42 10° SSW 00:13:39 35° SE 00:33:00 10° E visible
15 Dec - 02:17:04 10° SW 02:38:27 68° SSE 03:00:07 10° ENE visible
15 Dec - 04:41:56 10° W 05:05:58 85° S 05:23:54 10° E visible
15 Dec - 07:10:01 10° W 07:32:11 72° SSW 07:45:20 10° ESE daylight
15 Dec - 09:39:33 10° W 09:54:08 33° SW 10:03:09 10° SSE daylight
15 Dec - 22:07:48 10° SE 22:12:40 11° ESE 22:17:58 10° ESE visible
16 Dec - 00:17:21 10° SSW 00:34:22 43° SE 00:55:18 10° ENE visible
16 Dec - 02:38:03 10° WSW 02:59:58 75° SSE 03:21:36 10° E visible
16 Dec - 05:03:39 10° W 05:27:44 85° S 05:45:08 10° E visible
16 Dec - 07:31:55 10° WNW 07:53:22 64° SSW 08:06:03 10° SE daylight
16 Dec - 10:02:14 10° W 10:14:25 25° SW 10:22:35 10° S daylight
16 Dec - 22:22:53 10° SSE 22:32:57 18° SE 22:45:13 10° E visible
17 Dec - 00:37:26 10° SW 00:55:14 52° SE 01:17:15 10° ENE visible
17 Dec - 02:59:15 10° WSW 03:21:37 80° SSE 03:43:02 10° E visible
17 Dec - 05:25:25 10° W 05:49:27 83° S 06:06:19 10° ESE visible
17 Dec - 07:53:51 10° WNW 08:14:19 55° SW 08:26:34 10° SE daylight
17 Dec - 10:25:49 10° W 10:34:34 17° SW 10:41:08 10° SSW daylight
17 Dec - 22:40:57 10° S 22:53:17 26° SE 23:09:17 10° E visible
18 Dec - 00:57:51 10° SW 01:16:19 60° SSE 01:39:02 10° ENE visible
18 Dec - 03:20:38 10° WSW 03:43:23 83° S 04:04:28 10° E visible
18 Dec - 05:47:12 10° W 06:11:03 79° SSW 06:27:23 10° ESE visible
18 Dec - 08:15:53 10° WNW 08:35:03 46° SW 08:46:50 10° SSE daylight
18 Dec - 10:53:04 10° WSW 10:54:39 10° WSW 10:56:09 10° SW daylight
18 Dec - 23:00:01 10° S 23:13:41 33° SE 23:32:16 10° E visible
19 Dec - 01:18:32 10° SW 01:37:35 68° SSE 02:00:42 10° ENE visible
19 Dec - 03:42:07 10° W 04:05:13 85° S 04:25:52 10° E visible
19 Dec - 06:08:59 10° W 06:32:30 73° SSW 06:48:20 10° ESE visible
19 Dec - 08:38:08 10° WNW 08:55:35 36° SW 09:06:46 10° SSE daylight
19 Dec - 23:19:40 10° SSW 23:34:14 42° SE 23:54:41 10° ENE visible
20 Dec - 01:39:26 10° WSW 01:59:02 75° SSE 02:22:19 10° E visible
20 Dec - 04:03:42 10° W 04:27:04 85° S 04:47:14 10° E visible
20 Dec - 06:30:48 10° WNW 06:53:47 65° SSW 07:09:06 10° SE daylight
20 Dec - 09:00:48 10° W 09:15:56 28° SW 09:26:14 10° S daylight
20 Dec - 21:26:06 10° SSE 21:33:50 16° ESE 21:43:30 10° E night (unlit)
20 Dec - 23:39:45 10° SSW 23:54:58 51° SE 00:16:45 10° ENE visible
21 Dec - 02:00:32 10° WSW 02:20:39 80° SSE 02:43:55 10° E visible
21 Dec - 04:25:19 10° W 04:48:51 83° S 05:08:31 10° ESE visible
21 Dec - 06:52:39 10° WNW 07:14:50 57° SSW 07:29:39 10° SE daylight
21 Dec - 09:24:12 10° W 09:36:09 20° SW 09:44:59 10° SSW daylight
21 Dec - 21:43:57 10° S 21:54:01 23° SE 22:07:51 10° E night (unlit)
22 Dec - 00:00:07 10° SW 00:15:55 60° SSE 00:38:39 10° ENE visible
22 Dec - 02:21:47 10° WSW 02:42:25 84° S 03:05:29 10° E visible
22 Dec - 04:46:57 10° W 05:10:33 79° SSW 05:29:41 10° ESE visible
22 Dec - 07:14:37 10° WNW 07:35:41 48° SW 07:49:56 10° SSE daylight
22 Dec - 09:49:26 10° W 09:56:17 13° WSW 10:02:03 10° SW daylight
22 Dec - 22:02:59 10° S 22:14:18 31° SE 22:30:58 10° E visible
23 Dec - 00:20:44 10° SW 00:37:05 68° SSE 01:00:26 10° ENE visible
23 Dec - 02:43:09 10° W 03:04:15 85° S 03:27:03 10° E visible
23 Dec - 05:08:35 10° W 05:32:07 73° SSW 05:50:43 10° ESE visible
23 Dec - 07:36:48 10° WNW 07:56:20 39° SW 08:09:54 10° SSE daylight
23 Dec - 22:22:37 10° SSW 22:34:43 40° SE 22:53:28 10° ENE visible
